Location: Baumgarten
(49.0970°N, 12.7493°E)
Time: 07:44:35
(UTC+00:00)

Terra - Pass Details

Date: 05 July 2020
Orbit: 701 x 703 km, 98.2° (Epoch: 05 August)

Event Time Altitude Azimuth Distance (km) Brightness Sun altitude
Exits shadow 22:10:32 11° 221° (SW) 2,104 4.0 -16.9°
Maximum altitude 22:13:54 21° 269° (W) 1,558 3.7 -17.0°
Drops below altitude 10° 22:17:31 10° 318° (NW) 2,181 5.3 -17.1°
Sets 22:20:18 0° 334° (NNW) 3,105 6.7 -17.2°
